This is the latest recevied weather packets stored in our database for station/object N7CEE. If no packets are shown the sender has not sent any weather packets the latest 10 day(s).
| Time | Temp. | Humidity | Pressure | Rain* | Wind** | Luminosity | Snow |
|---|---|---|---|---|---|---|---|
| 1777720998 | 3.33° C | 43% | 1025.7 hPa | 0 mm | - | 0 W/m² | - |
| 1777720696 | 4.44° C | 41% | 1025.8 hPa | 0 mm | - | 0 W/m² | - |
| 1777720393 | 3.89° C | 42% | 1025.7 hPa | 0 mm | - | 0 W/m² | - |
| 1777720091 | 3.89° C | 42% | 1025.7 hPa | 0 mm | - | 0 W/m² | - |
| 1777719789 | 4.44° C | 41% | 1025.6 hPa | 0 mm | - | 0 W/m² | - |
| 1777719486 | 4.44° C | 40% | 1025.6 hPa | 0 mm | - | 0 W/m² | - |
| 1777719182 | 5° C | 39% | 1025.8 hPa | 0 mm | - | 0 W/m² | - |
| 1777718880 | 5° C | 39% | 1025.6 hPa | 0 mm | - | 0 W/m² | - |
| 1777718577 | 5.56° C | 37% | 1025.5 hPa | 0 mm | - | 0 W/m² | - |
| 1777718275 | 5.56° C | 35% | 1025.6 hPa | 0 mm | - | 0 W/m² | - |
| 1777717972 | 5.56° C | 36% | 1025.5 hPa | 0 mm | - | 0 W/m² | - |
| 1777717669 | 5.56° C | 37% | 1025.8 hPa | 0 mm | - | 0 W/m² | - |
| 1777717365 | 6.11° C | 37% | 1025.7 hPa | 0 mm | - | 0 W/m² | - |
| 1777717064 | 6.11° C | 36% | 1025.8 hPa | 0 mm | - | 0 W/m² | - |
| 1777716761 | 6.67° C | 36% | 1025.6 hPa | 0 mm | - | 0 W/m² | - |
| 1777716459 | 6.67° C | 35% | 1025.7 hPa | 0 mm | - | 0 W/m² | - |
| 1777716158 | 6.67° C | 35% | 1025.7 hPa | 0 mm | - | 0 W/m² | - |
| 1777715856 | 6.67° C | 35% | 1025.5 hPa | 0 mm | - | 0 W/m² | - |
| 1777715553 | 6.67° C | 36% | 1025.8 hPa | 0 mm | - | 0 W/m² | - |
| 1777715250 | 6.67° C | 36% | 1025.6 hPa | 0 mm | - | 0 W/m² | - |
| 1777714948 | 6.67° C | 36% | 1025.7 hPa | 0 mm | - | 0 W/m² | - |
| 1777714646 | 6.67° C | 35% | 1025.6 hPa | 0 mm | - | 0 W/m² | - |
| 1777714344 | 6.67° C | 34% | 1025.7 hPa | 0 mm | - | 0 W/m² | - |
| 1777714041 | 6.67° C | 34% | 1025.5 hPa | 0 mm | - | 0 W/m² | - |
| 1777713739 | 6.67° C | 33% | 1025.6 hPa | 0 mm | - | 0 W/m² | - |
* Rain latest hour (hover to see other rain measurements)
** Current wind speed in m/s (hover to see current wind gust speed)